Home   Weather   Sousse   Past weeks
Flag for Tunisia

Past Weather in Sousse, Tunisia — Yesterday and Last 2 Weeks

Now
86 °F

Passing clouds.


Feels Like: 87 °F
Forecast: 92 / 74 °F
Wind: 9 mph from Northeast

Location: Habib Bourguiba

Current Time: Jul 19, 2019 at 2:04:55 pm

Latest Report: Jul 19, 2019 at 1:00 pm


Visibility: N/A

Pressure: 30.01 "Hg

Humidity: 46%

Dew Point: 63 °F

Location of SousseLocation

Past Weather in Sousse — Graph

°F

Sousse Temperature Yesterday

Maximum temperature yesterday: 86 °F (at 1:00 pm)
Minimum temperature yesterday: 73 °F (at 2:00 am)
Average temperature yesterday: 80 °F

High & Low Weather Summary for the Past Weeks

 TemperatureHumidityPressure
High109 °F (Jul 9, 12:30 pm)100% (Jul 5, 11:00 pm)30.04 "Hg (Jul 5, 11:00 pm)
Low73 °F (Jul 18, 2:00 am)3% (Jul 9, 12:30 pm)29.65 "Hg (Jul 14, 7:00 pm)
Average85 °F63%29.90 "Hg
* Reported Jul 4 12:00 pm — Jul 19 12:30 pm, Sousse. Weather by CustomWeather, © 2019

Note: Actual official high and low records may vary slightly from our data, if they occured in-between our weather recording intervals... More about our weather records

Advertising

Sousse Weather History for the Previous 24 Hours

Scroll right to see more
 ConditionsComfort  
Time TempWeatherWind HumidityBarometerVisibility
12:30 pm
Fri, Jul 19
84 °FPassing clouds.10 mph51%30.04 "HgN/A
12:00 pm84 °FPassing clouds.9 mph58%30.04 "HgN/A
11:30 am82 °FPassing clouds.8 mph66%30.04 "HgN/A
11:00 am82 °FPassing clouds.8 mph66%30.04 "HgN/A
10:30 am82 °FPassing clouds.8 mph62%30.04 "HgN/A
10:00 am82 °FPassing clouds.9 mph55%30.04 "HgN/A
9:30 am82 °FPassing clouds.7 mph55%30.04 "HgN/A
9:00 am81 °FPassing clouds.5 mph66%30.04 "HgN/A
8:30 am81 °FSunny.2 mph70%30.01 "Hg10 mi
8:00 am79 °FPassing clouds.5 mph74%30.01 "HgN/A
7:30 am79 °FPassing clouds.3 mph79%30.01 "HgN/A
7:00 am77 °FPassing clouds.6 mph83%29.98 "HgN/A
6:30 am75 °FSunny.7 mph94%29.98 "Hg10 mi
6:00 am77 °FPassing clouds.3 mph89%29.98 "Hg5 mi
5:30 am77 °FPassing clouds.5 mph83%29.98 "Hg5 mi
5:00 am77 °FPassing clouds.3 mph83%29.98 "Hg5 mi
4:30 am77 °FPassing clouds.5 mph79%29.98 "Hg5 mi
4:00 am77 °FPassing clouds.5 mph74%29.98 "Hg5 mi
3:30 am77 °FPassing clouds.7 mph69%29.98 "Hg5 mi
3:00 am77 °FPassing clouds.8 mph74%29.98 "Hg5 mi
2:30 am77 °FPassing clouds.8 mph89%29.98 "Hg5 mi
2:00 am77 °FPassing clouds.8 mph94%29.98 "Hg5 mi
1:30 am79 °FPassing clouds.5 mph94%29.98 "Hg5 mi
1:00 am79 °FPassing clouds.5 mph94%29.98 "Hg5 mi
12:30 am79 °FPassing clouds.3 mph89%29.98 "Hg5 mi
12:00 am79 °FPassing clouds.2 mph89%29.98 "Hg5 mi
11:30 pm
Thu, Jul 18
79 °FPassing clouds.No wind89%29.98 "Hg5 mi
11:00 pm79 °FPassing clouds.No wind89%29.98 "Hg5 mi
10:30 pm79 °FPassing clouds.2 mph89%29.98 "Hg5 mi
10:00 pm81 °FPassing clouds.3 mph84%29.98 "Hg5 mi
9:30 pm81 °FPassing clouds.7 mph84%29.95 "Hg5 mi
9:00 pm81 °FPassing clouds.8 mph84%29.95 "Hg5 mi
8:30 pm81 °FPassing clouds.12 mph84%29.92 "Hg5 mi
8:00 pm81 °FPassing clouds.12 mph84%29.92 "Hg5 mi
7:30 pm81 °FPassing clouds.15 mph84%29.89 "Hg5 mi
7:00 pm82 °FScattered clouds.14 mph79%29.92 "Hg5 mi
6:30 pm82 °FClear.15 mph74%29.89 "Hg5 mi
6:00 pm84 °FThunderstorms. Scattered clouds.16 mph70%29.86 "Hg5 mi
5:30 pm84 °FThunderstorms. Scattered clouds.20 mph70%29.86 "Hg5 mi
5:00 pm84 °FScattered clouds.18 mph66%29.89 "Hg5 mi
4:30 pm84 °FPartly sunny.20 mph66%29.89 "Hg5 mi
4:00 pm84 °FScattered clouds.18 mph66%29.92 "Hg5 mi
3:30 pm86 °FScattered clouds.21 mph59%29.89 "Hg5 mi
3:00 pm86 °FScattered clouds.21 mph62%29.89 "Hg5 mi
2:30 pm86 °FScattered clouds.21 mph66%29.89 "Hg5 mi
2:00 pm84 °FScattered clouds.21 mph66%29.89 "Hg4 mi
Weather by CustomWeather, © 2019

See weather overview